Flag for Germany Weather past 2 weeks in Kempten, Bavaria, Germany

Now
69 °F

Partly sunny.


Feels Like: 69 °F
Forecast: 48 / 67 °F
Wind: 2 mph from Northwest

Location: Kempten

Current Time: Aug 28, 2014 at 6:05:22 PM

Latest Report: Aug 28, 2014 at 4:00 PM


Visibility: 44 mi

Pressure: 30.00 "Hg

Humidity: 52%

Dew point: 50 °F

Location of KemptenLocation

Historic Weather in Kempten — Graph

°F

Kempten temperature yesterday

Maximum temperature yesterday: 62 °F (at 1:00 PM)
Minimum temperature yesterday: 53 °F (at 11:00 PM)
Average temperature yesterday: 57 °F

Past Weeks' High & Low Weather Summary

 TemperatureHumidityPressure
High69 °F (Aug 28, 2:00 PM)100% (Aug 19, 6:00 AM)30.21 "Hg (Aug 19, 6:00 AM)
Low40 °F (Aug 25, 5:00 AM)43% (Aug 22, 3:00 PM)29.70 "Hg (Aug 13, 4:00 PM)
Average56 °F79%30.00 "Hg
* Reported Aug 13 4:00 PM — Aug 28 4:00 PM, Kempten, Weather by CustomWeather, © 2014

Note: Actual official high and low records may vary slightly from our data, if they occured in-between our weather recording intervals... More about our weather records

Advertising

Kempten weather history for previous 24 hours

 ConditionsComfort  
Time TempWeatherWind HumidityBarometerVisibility
4:00 PM
Aug 28
69 °FPartly sunny.2 mph52%30.00 "Hg43 mi
3:00 PM69 °FPassing clouds.2 mph55%30.01 "Hg40 mi
2:00 PM69 °FPassing clouds.2 mph54%30.01 "Hg22 mi
1:00 PM67 °FPassing clouds.2 mph56%30.02 "Hg34 mi
12:00 PM65 °FSunny.1 mph57%30.04 "Hg43 mi
10:00 AM57 °FOvercast.2 mph86%30.09 "Hg34 mi
9:00 AM53 °FOvercast.1 mph95%30.11 "Hg14 mi
8:00 AM51 °FOvercast.1 mph97%30.11 "Hg9 mi
7:00 AM49 °FOvercast.2 mph98%30.11 "Hg10 mi
6:00 AM49 °FPassing clouds.2 mph97%30.10 "Hg7 mi
4:00 AM49 °FFog.2 mph99%30.10 "Hg4 mi
3:00 AM49 °FPassing clouds.2 mph98%30.11 "Hg1 mi
2:00 AM51 °FOvercast.2 mph98%30.09 "Hg3 mi
1:00 AM51 °FPassing clouds.2 mph98%30.09 "Hg7 mi
12:00 AM50 °FClear.2 mph98%30.10 "Hg1 mi
11:00 PM
Aug 27
53 °FPassing clouds.2 mph97%30.09 "Hg1 mi
10:00 PM55 °FOvercast.2 mph97%30.06 "Hg7 mi
9:00 PM56 °FLight rain. Overcast.1 mph96%30.06 "Hg7 mi
8:00 PM57 °FLight rain. Low clouds.1 mph95%30.05 "Hg4 mi
7:00 PM57 °FLight rain. Overcast.1 mph94%30.05 "Hg6 mi
6:00 PM58 °FLight rain. Overcast.1 mph89%30.04 "Hg25 mi
Weather by CustomWeather, © 2014

See weather overviewHow to use our weather pages